User: anonymous   Login
Location: Piotrkow Trybunalski
(51.4000°N, 19.6830°E)
Time: 05:57:06
(UTC+01:00)
Language:

Oscar 11 - Orbit

View from above orbital plane
View from above orbital plane
View from above satellite
View from above satellite

Ground track
Ground track

The orbit data is extracted from the following two-line orbital elements,

1 14781U 84021B   23081.52488324  .00002641  00000-0  31899-3 0  9992
2 14781  97.6501  61.8715 0009690 120.7915 239.4255 14.84525354102282
Epoch (UTC): 22 March 2023 12:35:49
Eccentricity: 0.0009690
inclination: 97.6501°
perigee height: 608 km
apogee height: 622 km
right ascension of ascending node: 61.8715°
argument of perigee: 120.7915°
revolutions per day: 14.84525354
mean anomaly at epoch: 239.4255°
orbit number at epoch: 10228

The dashed part of the orbit path shows where the satellite is in the earth's shadow,  

DLR